"2009-03-23 00:00:00",734738,11.61,201.7,1.672,0.417,17.43,107.5664,18.65,19.67,8.18,0,110.7,13.26,19.46,163.7
"2009-03-23 00:00:30",734739,11.49,202.6,3.209,0.476,17.41,107.5656,18.65,19.66,8.09,0,110.7,13.26,19.46,164.6
"2009-03-23 00:01:00",734740,10.55,207.4,3.259,1.06,17.34,107.5656,18.65,19.65,8.14,0,110.7,13.26,19.46,169.4
"2009-03-23 00:01:30",734741,10.42,207.7,3.017,0.833,17.35,107.5653,18.64,19.66,8.18,0,110.7,13.26,19.46,169.7
"2009-03-23 00:02:00",734742,11.52,203.7,2.734,0.396,17.4,107.5664,18.65,19.65,8.09,0,110.7,13.26,19.46,165.7
"2009-03-23 00:02:30",734743,11.51,201.9,4.507,0.577,17.41,107.5664,18.65,19.66,8.09,0,110.7,13.26,19.46,163.9
"2009-03-23 00:03:00",734744,11.85,202,1.101,0.184,17.4,107.5661,18.65,19.66,7.989,0,110.7,13.26,19.46,164.0
"2009-03-23 00:03:30",734745,11.67,211.7,3.066,0.406,17.39,107.5701,18.66,19.65,7.937,0,110.7,13.26,19.47,173.7
"2009-03-23 00:04:00",734746,12.04,201.5,3.628,0.263,17.45,107.5751,18.67,19.67,7.873,0,110.7,13.26,19.49,163.5
"2009-03-23 00:04:30",734747,12.2,202.2,2.84,0.363,17.43,107.578,18.68,19.68,7.832,0,110.7,13.26,19.49,164.2
"2009-03-23 00:05:00",734748,12.77,210.5,4.468,0.944,17.43,107.585,18.7,19.67,7.837,0,110.7,13.26,19.51,172.5
"2009-03-23 00:05:30",734749,12.29,203.1,1.59,0.333,17.46,107.5867,18.7,19.67,7.82,0,110.7,13.26,19.52,165.1
"2009-03-23 00:06:00",734750,12.45,206.6,2.867,0.425,17.44,107.5872,18.7,19.68,7.787,0,110.7,13.26,19.52,168.6
"2009-03-23 00:06:30",734751,12.87,206.1,2.108,0.443,17.51,107.5948,18.72,19.68,7.715,0,110.7,13.26,19.54,168.1
"2009-03-23 00:07:00",734752,13.67,205.1,3.749,0.794,17.51,107.5979,18.73,19.69,7.659,0,110.7,13.26,19.55,167.1
"2009-03-23 00:07:30",734753,14.86,208,2.089,0.41,17.52,107.5991,18.73,19.68,7.598,0,110.7,13.26,19.55,170.0
"2009-03-23 00:08:00",734754,13.48,211.1,3.789,0.659,17.42,107.5988,18.73,19.7,7.611,0,110.7,13.26,19.55,173.1
"2009-03-23 00:08:30",734755,12.7,210.8,2.867,0.561,17.44,107.5988,18.73,19.71,7.633,0,110.7,13.26,19.55,172.8
"2009-03-23 00:09:00",734756,11.76,215.2,3.862,0.585,17.38,107.5988,18.73,19.72,7.656,0,110.7,13.26,19.55,177.2
"2009-03-23 00:09:30",734757,13.69,213.4,2.656,0.716,17.48,107.5997,18.73,19.72,7.62,0,110.6,13.26,19.55,175.4
"2009-03-23 00:10:00",734758,15.12,218.2,2.365,0.922,17.52,107.5997,18.73,19.74,7.532,0,110.7,13.26,19.55,180.2
"2009-03-23 00:10:30",734759,15.05,218.4,1.091,0.378,17.5,107.6033,18.74,19.74,7.471,0,110.7,13.26,19.56,180.4
"2009-03-23 00:11:00",734760,15.52,216,2.103,0.303,17.5,107.6208,18.79,19.75,7.421,0,110.7,13.26,19.60,178.0
"2009-03-23 00:11:30",734761,15,214.5,2.353,0.629,17.48,107.6319,18.82,19.76,7.394,0,110.7,13.26,19.63,176.5
"2009-03-23 00:12:00",734762,15.21,212.3,2.052,0.433,17.53,107.6356,18.82,19.76,7.43,0,110.6,13.26,19.64,174.3
"2009-03-23 00:12:30",734763,15.03,214.1,1.616,0.375,17.49,107.6368,18.83,19.77,7.42,0,110.7,13.26,19.65,176.1
"2009-03-23 00:13:00",734764,14.84,214.9,1.427,0.438,17.48,107.6374,18.83,19.78,7.429,0,110.6,13.26,19.65,176.9
"2009-03-23 00:13:30",734765,15.22,211.5,2.306,0.612,17.52,107.6398,18.84,19.81,7.387,0,110.6,13.26,19.65,173.5
"2009-03-23 00:14:00",734766,15.21,214,1.955,0.581,17.52,107.6429,18.84,19.81,7.399,0,110.6,13.26,19.66,176.0
"2009-03-23 00:14:30",734767,15.1,213.2,0.897,0.376,17.45,107.6469,18.85,19.82,7.263,0,110.6,13.26,19.67,175.2
"2009-03-23 00:15:00",734768,15.33,218.4,1.985,0.625,17.41,107.6545,18.87,19.82,7.167,0,110.6,13.26,19.69,180.4
"2009-03-23 00:15:30",734769,15.45,217.2,1.929,0.27,17.43,107.6717,18.92,19.82,7.188,0,110.7,13.26,19.74,179.2
"2009-03-23 00:16:00",734770,15.05,217.1,0.859,0.309,17.39,107.6727,18.92,19.82,6.982,0,110.6,13.26,19.74,179.1
"2009-03-23 00:16:30",734771,14.13,215.1,3.023,0.586,17.42,107.673,18.92,19.86,7.013,0,110.6,13.26,19.74,177.1
"2009-03-23 00:17:00",734772,13.94,214.1,1.525,0.731,17.46,107.6783,18.93,19.86,7.122,0,110.6,13.26,19.75,176.1
"2009-03-23 00:17:30",734773,13.98,215.2,1.302,0.567,17.45,107.6754,18.93,19.85,7.136,0,110.6,13.27,19.75,177.2
"2009-03-23 00:18:00",734774,13.46,215.7,1.395,0.248,17.48,107.6752,18.93,19.84,7.137,0,110.6,13.26,19.74,177.7
"2009-03-23 00:18:30",734775,13.25,213.2,2.766,0.62,17.41,107.6805,18.94,19.85,7.15,0,110.6,13.27,19.76,175.2
"2009-03-23 00:19:00",734776,13.86,214.4,2.499,0.368,17.43,107.6804,18.94,19.85,7.161,0,110.6,13.27,19.76,176.4
"2009-03-23 00:19:30",734777,14.82,209.1,1.888,0.377,17.46,107.6828,18.95,19.85,7.047,0,110.6,13.27,19.76,171.1
"2009-03-23 00:20:00",734778,14.81,210,2.323,0.324,17.46,107.6809,18.94,19.87,6.947,0,110.7,13.27,19.76,172.0
"2009-03-23 00:20:30",734779,14.44,211.7,1.681,0.31,17.4,107.6767,18.93,19.85,6.869,0,110.6,13.26,19.75,173.7
"2009-03-23 00:21:00",734780,12.81,207.6,1.786,0.488,17.44,107.6708,18.92,19.85,6.899,0,110.6,13.27,19.73,169.6
"2009-03-23 00:21:30",734781,13.19,208.1,1.32,0.302,17.36,107.6678,18.91,19.84,6.955,0,110.6,13.27,19.73,170.1
"2009-03-23 00:22:00",734782,13.02,214.6,3.734,0.238,17.41,107.664,18.9,19.86,6.914,0,110.6,13.27,19.72,176.6
"2009-03-23 00:22:30",734783,12.65,213.3,1.512,0.274,17.37,107.6619,18.89,19.86,6.867,0,110.6,13.27,19.71,175.3
"2009-03-23 00:23:00",734784,13.13,212.2,2.628,0.233,17.44,107.6638,18.9,19.85,6.843,0,110.6,13.27,19.72,174.2
"2009-03-23 00:23:30",734785,13.86,214.4,1.904,0.29,17.38,107.6629,18.89,19.85,6.887,0,110.6,13.27,19.71,176.4
"2009-03-23 00:24:00",734786,14.85,212.4,1.332,0.293,17.5,107.6653,18.9,19.85,6.763,0,110.6,13.27,19.72,174.4
"2009-03-23 00:24:30",734787,14.09,212.3,1.459,0.285,17.47,107.6659,18.9,19.84,6.632,0,110.6,13.27,19.72,174.3
"2009-03-23 00:25:00",734788,13.48,212.8,1.451,0.344,17.46,107.6662,18.9,19.83,6.701,0,110.6,13.27,19.72,174.8
"2009-03-23 00:25:30",734789,14.49,214.8,2.018,0.654,17.47,107.6677,18.91,19.85,6.724,0,110.6,13.26,19.73,176.8
"2009-03-23 00:26:00",734790,15.64,211.5,1.422,1.07,17.54,107.6674,18.91,19.86,6.721,0,110.6,13.26,19.72,173.5
"2009-03-23 00:26:30",734791,15.26,211.4,4.957,0.683,17.54,107.6683,18.91,19.84,6.669,0,110.6,13.26,19.73,173.4
"2009-03-23 00:27:00",734792,15.17,207.5,2.602,0.619,17.52,107.6689,18.91,19.86,6.645,0,110.6,13.26,19.73,169.5
"2009-03-23 00:27:30",734793,15.35,212.4,1.578,0.731,17.52,107.6686,18.91,19.84,6.643,0,110.6,13.26,19.73,174.4
"2009-03-23 00:28:00",734794,16.08,212.3,1.175,0.739,17.53,107.6683,18.91,19.85,6.66,0,110.6,13.26,19.73,174.3
"2009-03-23 00:28:30",734795,16.86,211.2,1.761,0.301,17.49,107.6686,18.91,19.85,6.667,0,110.6,13.26,19.73,173.2
"2009-03-23 00:29:00",734796,16.78,209.3,1.757,0.307,17.54,107.6689,18.91,19.85,6.606,0,110.6,13.26,19.73,171.3
"2009-03-23 00:29:30",734797,16.14,208.3,1.661,0.606,17.48,107.6689,18.91,19.85,6.585,0,110.6,13.26,19.73,170.3
"2009-03-23 00:30:00",734798,17.03,208.8,1.939,0.785,17.56,107.6689,18.91,19.85,6.558,0,110.6,13.26,19.73,170.8
"2009-03-23 00:30:30",734799,16.53,207.8,0.629,0.302,17.51,107.6689,18.91,19.84,6.517,0,110.6,13.26,19.73,169.8
"2009-03-23 00:31:00",734800,16.46,209.8,0.764,0.221,17.46,107.6689,18.91,19.85,6.567,0,110.6,13.27,19.73,171.8
"2009-03-23 00:31:30",734801,16.24,210.6,0.818,0.231,17.52,107.6689,18.91,19.86,6.594,0,110.6,13.27,19.73,172.6
"2009-03-23 00:32:00",734802,16,210.8,1.263,0.259,17.48,107.6689,18.91,19.86,6.603,0,110.6,13.27,19.73,172.8
"2009-03-23 00:32:30",734803,15.82,212.2,1.241,0.313,17.5,107.6689,18.91,19.86,6.565,0,110.6,13.27,19.73,174.2
"2009-03-23 00:33:00",734804,15.62,211.3,1.381,0.13,17.56,107.6689,18.91,19.87,6.522,0,110.6,13.27,19.73,173.3
"2009-03-23 00:33:30",734805,15.3,214.8,1.941,0.293,17.43,107.6692,18.91,19.86,6.552,0,110.6,13.27,19.73,176.8
"2009-03-23 00:34:00",734806,14.88,215.2,2.142,0.327,17.48,107.6689,18.91,19.86,6.558,0,110.6,13.27,19.73,177.2
"2009-03-23 00:34:30",734807,14.11,215.2,2.704,0.276,17.41,107.6689,18.91,19.86,6.572,0,110.6,13.27,19.73,177.2
"2009-03-23 00:35:00",734808,13.95,214.3,1.691,0.643,17.4,107.6689,18.91,19.86,6.598,0,110.6,13.27,19.73,176.3
"2009-03-23 00:35:30",734809,14.4,208.2,1.651,0.659,17.43,107.6689,18.91,19.87,6.635,0,110.6,13.27,19.73,170.2
"2009-03-23 00:36:00",734810,15.35,211,1.854,0.265,17.5,107.6689,18.91,19.86,6.6,0,110.6,13.27,19.73,173.0
"2009-03-23 00:36:30",734811,14.31,211.9,2.132,0.572,17.42,107.6689,18.91,19.86,6.623,0,110.6,13.27,19.73,173.9
"2009-03-23 00:37:00",734812,13.77,210.9,2.85,0.349,17.38,107.6689,18.91,19.87,6.672,0,110.6,13.27,19.73,172.9
"2009-03-23 00:37:30",734813,13.67,209.6,3.21,0.374,17.39,107.6689,18.91,19.85,6.654,0,110.6,13.27,19.73,171.6
"2009-03-23 00:38:00",734814,13.73,212.6,1.829,0.88,17.34,107.6689,18.91,19.87,6.687,0,110.6,13.27,19.73,174.6
"2009-03-23 00:38:30",734815,14.6,211,3.185,0.633,17.42,107.6689,18.91,19.86,6.667,0,110.6,13.27,19.73,173.0
"2009-03-23 00:39:00",734816,13.78,213.6,3.204,0.579,17.37,107.6689,18.91,19.85,6.695,0,110.6,13.27,19.73,175.6
"2009-03-23 00:39:30",734817,13.73,214.1,2.607,0.703,17.37,107.6686,18.91,19.84,6.71,0,110.6,13.27,19.73,176.1
"2009-03-23 00:40:00",734818,13.05,214.8,2.924,0.464,17.32,107.667,18.91,19.84,6.716,0,110.6,13.27,19.72,176.8
"2009-03-23 00:40:30",734819,13.04,215.8,1.817,0.415,17.29,107.6622,18.89,19.85,6.771,0,110.6,13.27,19.71,177.8
"2009-03-23 00:41:00",734820,13.7,216.5,3.444,0.699,17.36,107.6475,18.86,19.83,6.776,0,110.6,13.27,19.67,178.5
"2009-03-23 00:41:30",734821,14.55,208.8,3.872,0.724,17.44,107.6365,18.83,19.82,6.649,0,110.6,13.27,19.64,170.8
"2009-03-23 00:42:00",734822,15.05,213,2.977,0.486,17.43,107.6351,18.82,19.82,6.47,0,110.6,13.27,19.64,175.0
"2009-03-23 00:42:30",734823,14.97,210.6,2.266,0.463,17.4,107.6351,18.82,19.81,6.505,0,110.6,13.27,19.64,172.6
"2009-03-23 00:43:00",734824,14.9,208.1,1.764,0.72,17.48,107.6351,18.82,19.81,6.462,0,110.6,13.27,19.64,170.1
"2009-03-23 00:43:30",734825,14.47,209.9,3.52,0.498,17.41,107.6351,18.82,19.79,6.479,0,110.6,13.27,19.64,171.9
"2009-03-23 00:44:00",734826,15.13,209.4,1.848,0.79,17.41,107.6351,18.82,19.81,6.444,0,110.6,13.27,19.64,171.4
"2009-03-23 00:44:30",734827,14.84,208.7,2.417,0.444,17.49,107.6351,18.82,19.8,6.353,0,110.6,13.27,19.64,170.7
"2009-03-23 00:45:00",734828,15.57,208.4,0.949,0.285,17.57,107.6351,18.82,19.78,6.274,0,110.6,13.27,19.64,170.4
"2009-03-23 00:45:30",734829,15.61,206.3,1.643,0.289,17.57,107.6351,18.82,19.79,6.181,0,110.6,13.27,19.64,168.3
"2009-03-23 00:46:00",734830,14.99,207.3,0.908,0.25,17.46,107.6351,18.82,19.78,6.193,0,110.6,13.27,19.64,169.3
"2009-03-23 00:46:30",734831,15.07,209.9,1.099,0.26,17.47,107.6351,18.82,19.77,6.194,0,110.6,13.27,19.64,171.9
"2009-03-23 00:47:00",734832,14.75,208.8,1.991,0.168,17.46,107.6351,18.82,19.79,6.176,0,110.6,13.27,19.64,170.8
"2009-03-23 00:47:30",734833,14.45,209.2,1.456,0.31,17.44,107.6351,18.82,19.78,6.188,0,110.6,13.27,19.64,171.2
"2009-03-23 00:48:00",734834,14.49,208.9,2.07,0.228,17.43,107.6351,18.82,19.78,6.22,0,110.6,13.27,19.64,170.9
"2009-03-23 00:48:30",734835,14.81,211.9,1.263,0.604,17.43,107.6351,18.82,19.78,6.243,0,110.6,13.27,19.64,173.9
"2009-03-23 00:49:00",734836,15.19,210.5,2.536,0.517,17.45,107.6351,18.82,19.77,6.211,0,110.6,13.27,19.64,172.5
"2009-03-23 00:49:30",734837,16.11,206.1,2.894,0.805,17.53,107.6351,18.82,19.78,6.19,0,110.6,13.27,19.64,168.1
"2009-03-23 00:50:00",734838,15.46,207.8,3.004,0.565,17.46,107.6351,18.82,19.79,6.189,0,110.6,13.27,19.64,169.8
"2009-03-23 00:50:30",734839,14.65,213.1,3.828,0.681,17.41,107.6351,18.82,19.78,6.194,0,110.6,13.27,19.64,175.1
"2009-03-23 00:51:00",734840,16.3,213.4,2.865,0.35,17.46,107.6351,18.82,19.77,6.096,0,110.6,13.27,19.64,175.4
"2009-03-23 00:51:30",734841,16.2,206,1.604,0.43,17.46,107.6351,18.82,19.8,6.07,0,110.6,13.27,19.64,168.0
"2009-03-23 00:52:00",734842,16.33,207.7,2.002,0.655,17.49,107.6351,18.82,19.78,6.012,0,110.6,13.27,19.64,169.7
"2009-03-23 00:52:30",734843,14.69,213.1,2.597,0.687,17.37,107.6351,18.82,19.78,6.072,0,110.6,13.27,19.64,175.1
"2009-03-23 00:53:00",734844,14.75,215.2,4.696,0.509,17.4,107.6351,18.82,19.78,6.128,0,110.6,13.27,19.64,177.2
"2009-03-23 00:53:30",734845,14.99,218.9,3.465,0.641,17.37,107.6351,18.82,19.79,6.069,0,110.6,13.27,19.64,180.9
"2009-03-23 00:54:00",734846,13.11,212.9,3.468,0.654,17.3,107.6351,18.82,19.79,6.13,0,110.6,13.27,19.64,174.9
"2009-03-23 00:54:30",734847,13.29,211.6,2.485,0.674,17.36,107.6351,18.82,19.79,6.141,0,110.6,13.27,19.64,173.6
"2009-03-23 00:55:00",734848,13,212.2,3.125,0.505,17.33,107.6351,18.82,19.78,6.148,0,110.6,13.28,19.64,174.2
"2009-03-23 00:55:30",734849,13.95,211,2.462,0.716,17.32,107.6351,18.82,19.78,6.138,0,110.6,13.28,19.64,173.0
"2009-03-23 00:56:00",734850,17.09,210.7,3.803,1.547,17.44,107.6351,18.82,19.78,6.082,0,110.6,13.28,19.64,172.7
"2009-03-23 00:56:30",734851,17.59,214.5,2.497,0.618,17.41,107.6346,18.82,19.77,5.972,0,110.6,13.28,19.64,176.5
"2009-03-23 00:57:00",734852,17.22,214.8,2.167,0.375,17.39,107.632,18.82,19.77,5.894,0,110.6,13.28,19.63,176.8
"2009-03-23 00:57:30",734853,16.24,214.6,2.906,0.501,17.34,107.6289,18.81,19.76,5.801,0,110.6,13.28,19.63,176.6
"2009-03-23 00:58:00",734854,15.37,215.3,2.954,0.7,17.29,107.625,18.8,19.75,5.897,0,110.6,13.28,19.62,177.3
"2009-03-23 00:58:30",734855,15.59,215.6,3.475,0.977,17.28,107.6227,18.79,19.75,5.999,0,110.6,13.28,19.61,177.6
"2009-03-23 00:59:00",734856,14.89,214.8,2.388,0.617,17.28,107.6177,18.78,19.75,5.992,0,110.6,13.27,19.60,176.8
"2009-03-23 00:59:30",734857,16.66,216.8,2.957,0.849,17.37,107.6087,18.76,19.75,6.001,0,110.6,13.27,19.57,178.8
"2009-03-23 01:00:00",734858,16.26,216.8,2.704,1.048,17.28,107.6019,18.74,19.75,5.94,0,110.6,13.27,19.56,178.8
"2009-03-23 01:00:30",734859,16.55,215.5,2,0.316,17.3,107.6013,18.74,19.74,5.962,0,110.6,13.27,19.55,177.5
"2009-03-23 01:01:00",734860,17.44,215.5,1.613,0.409,17.42,107.6013,18.74,19.75,5.919,0,110.6,13.27,19.55,177.5
"2009-03-23 01:01:30",734861,17.03,213.8,4.424,0.472,17.4,107.6013,18.74,19.73,5.86,0,110.6,13.27,19.55,175.8
"2009-03-23 01:02:00",734862,15.34,212.2,1.797,0.808,17.27,107.6013,18.74,19.7,5.898,0,110.6,13.27,19.55,174.2
"2009-03-23 01:02:30",734863,15.01,214.6,1.499,1.001,17.29,107.6013,18.74,19.71,5.965,0,110.6,13.27,19.55,176.6
"2009-03-23 01:03:00",734864,16.62,214.4,2.642,0.772,17.34,107.6013,18.74,19.7,5.936,0,110.6,13.27,19.55,176.4
"2009-03-23 01:03:30",734865,17.52,220.5,2.475,0.645,17.46,107.6013,18.74,19.71,5.912,0,110.6,13.27,19.55,182.5
"2009-03-23 01:04:00",734866,15.95,221,1.591,0.661,17.37,107.6013,18.74,19.69,5.915,0,110.6,13.27,19.55,183.0
"2009-03-23 01:04:30",734867,17.37,222.9,1.192,0.288,17.47,107.6002,18.73,19.69,6.066,0,110.6,13.27,19.55,184.9
"2009-03-23 01:05:00",734868,16.24,221.6,1.658,0.663,17.43,107.5999,18.73,19.69,6.13,0,110.6,13.27,19.55,183.6
"2009-03-23 01:05:30",734869,15.65,217.2,2.502,0.89,17.32,107.6002,18.73,19.7,6.133,0,110.6,13.28,19.55,179.2
"2009-03-23 01:06:00",734870,16.89,220.4,1.646,0.493,17.41,107.5991,18.73,19.68,6.169,0,110.6,13.28,19.55,182.4
"2009-03-23 01:06:30",734871,16.03,218.7,2.306,0.435,17.37,107.6005,18.73,19.69,6.153,0,110.6,13.28,19.55,180.7
"2009-03-23 01:07:00",734872,16.69,215.7,2.315,0.76,17.33,107.5991,18.73,19.69,6.104,0,110.6,13.28,19.55,177.7
"2009-03-23 01:07:30",734873,14.83,219.6,2.37,0.81,17.27,107.5963,18.72,19.68,6.082,0,110.6,13.28,19.54,181.6
"2009-03-23 01:08:00",734874,15.51,220.2,3.377,1.256,17.31,107.5937,18.72,19.67,6.084,0,110.6,13.28,19.53,182.2
"2009-03-23 01:08:30",734875,14.92,220.7,3.132,0.953,17.28,107.5859,18.7,19.67,6.085,0,110.6,13.28,19.51,182.7
"2009-03-23 01:09:00",734876,16.55,222.3,4.724,0.547,17.35,107.578,18.68,19.68,6.086,0,110.6,13.28,19.49,184.3
"2009-03-23 01:09:30",734877,17.3,219.5,1.863,0.675,17.35,107.5707,18.66,19.67,6.059,0,110.6,13.28,19.48,181.5
"2009-03-23 01:10:00",734878,16.41,219.9,2.887,0.66,17.31,107.5681,18.65,19.68,6.042,0,110.6,13.28,19.47,181.9
"2009-03-23 01:10:30",734879,18.1,220.9,2.316,0.664,17.42,107.5679,18.65,19.66,5.945,0,110.6,13.28,19.47,182.9
"2009-03-23 01:11:00",734880,17.94,220.1,1.638,0.447,17.4,107.5676,18.65,19.66,5.9,0,110.6,13.28,19.47,182.1
"2009-03-23 01:11:30",734881,17.88,218.4,2.389,0.305,17.38,107.5685,18.65,19.65,5.866,0,110.6,13.28,19.47,180.4
"2009-03-23 01:12:00",734882,18.34,220.5,1.533,0.434,17.41,107.5682,18.65,19.64,5.865,0,110.6,13.28,19.47,182.5
"2009-03-23 01:12:30",734883,17.3,220,2.553,0.738,17.35,107.5691,18.65,19.63,5.868,0,110.6,13.28,19.47,182.0
"2009-03-23 01:13:00",734884,17.91,220.1,1.032,0.373,17.36,107.5676,18.65,19.64,5.896,0,110.6,13.28,19.47,182.1
"2009-03-23 01:13:30",734885,17.86,220.9,1.076,0.289,17.36,107.5685,18.65,19.65,5.9,0,110.6,13.28,19.47,182.9
"2009-03-23 01:14:00",734886,16.96,222.8,2.096,0.336,17.32,107.5688,18.65,19.65,5.92,0,110.6,13.28,19.47,184.8
"2009-03-23 01:14:30",734887,15.8,222.3,2.901,0.785,17.29,107.5685,18.65,19.65,5.938,0,110.6,13.28,19.47,184.3
"2009-03-23 01:15:00",734888,14.99,221.1,2.704,0.425,17.29,107.5694,18.66,19.64,5.956,0,110.6,13.28,19.47,183.1
"2009-03-23 01:15:30",734889,15.67,220.3,1.866,0.803,17.22,107.5709,18.66,19.64,5.97,0,110.6,13.28,19.48,182.3
"2009-03-23 01:16:00",734890,16.76,218.7,3.029,0.714,17.28,107.5712,18.66,19.64,5.922,0,110.6,13.28,19.48,180.7
"2009-03-23 01:16:30",734891,17.07,219.8,1.907,0.615,17.35,107.5715,18.66,19.61,5.905,0,110.6,13.28,19.48,181.8
"2009-03-23 01:17:00",734892,18.32,215.6,2.436,0.909,17.38,107.5718,18.66,19.62,5.926,0,110.6,13.27,19.48,177.6
"2009-03-23 01:17:30",734893,16.87,220.3,4.417,0.573,17.31,107.5709,18.66,19.63,6.077,0,110.6,13.27,19.48,182.3
"2009-03-23 01:18:00",734894,16.39,224.1,3.416,0.969,17.37,107.5733,18.67,19.62,6.074,0,110.6,13.27,19.48,186.1
"2009-03-23 01:18:30",734895,17.73,220.4,1.286,0.745,17.36,107.5739,18.67,19.61,6.058,0,110.6,13.27,19.48,182.4
"2009-03-23 01:19:00",734896,17.29,220.3,2.961,0.601,17.33,107.5742,18.67,19.61,6.078,0,110.6,13.27,19.48,182.3
"2009-03-23 01:19:30",734897,16.46,223.5,2.011,1.248,17.34,107.5745,18.67,19.61,6.081,0,110.6,13.27,19.49,185.5
"2009-03-23 01:20:00",734898,15.73,224.7,1.181,0.491,17.38,107.5767,18.67,19.61,6.122,0,110.6,13.27,19.49,186.7
"2009-03-23 01:20:30",734899,14.2,223.5,3.678,0.503,17.27,107.5752,18.67,19.62,6.132,0,110.6,13.27,19.49,185.5
"2009-03-23 01:21:00",734900,16.02,222.4,4.382,1.404,17.33,107.5747,18.67,19.61,6.118,0,110.6,13.28,19.49,184.4
"2009-03-23 01:21:30",734901,15.58,222.6,3.603,0.8,17.31,107.572,18.66,19.61,6.122,0,110.6,13.28,19.48,184.6
"2009-03-23 01:22:00",734902,15.09,228.8,4.515,1.089,17.29,107.5712,18.66,19.6,6.122,0,110.6,13.28,19.48,190.8
"2009-03-23 01:22:30",734903,16.14,221.9,3.151,0.542,17.3,107.5647,18.64,19.6,6.118,0,110.6,13.28,19.46,183.9
"2009-03-23 01:23:00",734904,17.02,222,4.889,0.598,17.19,107.5553,18.62,19.59,6.056,0,110.6,13.28,19.44,184.0
"2009-03-23 01:23:30",734905,15.94,224.5,3.551,0.622,17.2,107.5488,18.6,19.58,6.007,0,110.6,13.28,19.42,186.5
"2009-03-23 01:24:00",734906,15.44,219.9,4.872,0.646,17.13,107.5501,18.61,19.58,6.006,0,110.6,13.28,19.42,181.9
"2009-03-23 01:24:30",734907,16.8,216.9,1.972,1.261,17.21,107.5504,18.61,19.58,6.013,0,110.6,13.28,19.42,178.9
"2009-03-23 01:25:00",734908,17.89,218.1,2.371,0.744,17.24,107.5489,18.6,19.57,5.988,0,110.6,13.28,19.42,180.1
"2009-03-23 01:25:30",734909,18.24,217.4,1.595,0.356,17.27,107.5504,18.61,19.57,5.973,0,110.6,13.28,19.42,179.4
"2009-03-23 01:26:00",734910,17.74,220.5,2.2,0.794,17.23,107.552,18.61,19.54,5.986,0,110.6,13.28,19.43,182.5
"2009-03-23 01:26:30",734911,16.5,224,2.096,0.997,17.13,107.545,18.59,19.54,6,0,110.6,13.28,19.41,186.0
"2009-03-23 01:27:00",734912,16.41,221.2,3.994,1.344,17.15,107.525,18.54,19.53,6.033,0,110.6,13.28,19.36,183.2
"2009-03-23 01:27:30",734913,18.12,220.5,3.47,1.294,17.22,107.5206,18.53,19.53,6.047,0,110.6,13.28,19.35,182.5
"2009-03-23 01:28:00",734914,18.27,221.3,4.003,1.262,17.21,107.5197,18.53,19.5,6.049,0,110.6,13.28,19.34,183.3
"2009-03-23 01:28:30",734915,17.05,217,3.639,0.742,17.14,107.5203,18.53,19.5,6.076,0,110.6,13.28,19.35,179.0
"2009-03-23 01:29:00",734916,18.21,223.8,2.377,0.617,17.19,107.5233,18.54,19.48,6.082,0,110.6,13.28,19.35,185.8
"2009-03-23 01:29:30",734917,19.26,223,1.19,0.674,17.3,107.5163,18.52,19.48,6.09,0,110.6,13.28,19.34,185.0
"2009-03-23 01:30:00",734918,19.09,220.8,2.655,0.657,17.22,107.5125,18.51,19.45,6.117,0,110.6,13.28,19.33,182.8
"2009-03-23 01:30:30",734919,19.26,222.9,1.382,0.625,17.28,107.5091,18.5,19.46,6.107,0,110.6,13.28,19.32,184.9
"2009-03-23 01:31:00",734920,18.87,221.9,1.782,1.087,17.22,107.4929,18.46,19.43,6.13,0,110.6,13.28,19.28,183.9
"2009-03-23 01:31:30",734921,18.57,221.2,1.786,0.716,17.17,107.4907,18.45,19.44,6.17,0,110.6,13.28,19.27,183.2
"2009-03-23 01:32:00",734922,18.09,221.1,1.325,0.549,17.17,107.4934,18.46,19.43,6.183,0,110.6,13.28,19.28,183.1
"2009-03-23 01:32:30",734923,18.61,223.7,3.213,0.672,17.15,107.495,18.46,19.41,6.2,0,110.6,13.28,19.28,185.7
"2009-03-23 01:33:00",734924,17.05,224.6,2.493,0.554,17.13,107.4938,18.46,19.42,6.234,0,110.6,13.28,19.28,186.6
"2009-03-23 01:33:30",734925,17.69,225.8,1.945,0.507,17.21,107.4947,18.46,19.41,6.248,0,110.6,13.28,19.28,187.8
"2009-03-23 01:34:00",734926,18.01,232,1.326,0.434,17.22,107.4944,18.46,19.4,6.26,0,110.6,13.28,19.28,194.0
"2009-03-23 01:34:30",734927,18.75,231.9,1.763,0.732,17.23,107.4968,18.47,19.39,6.274,0,110.6,13.28,19.29,193.9
"2009-03-23 01:35:00",734928,17.69,229.8,1.867,0.289,17.18,107.4953,18.47,19.39,6.272,0,110.6,13.28,19.28,191.8
"2009-03-23 01:35:30",734929,17.51,229,1.788,0.336,17.14,107.4917,18.46,19.38,6.247,0,110.6,13.28,19.27,191.0
"2009-03-23 01:36:00",734930,17.37,227.9,1.293,0.52,17.22,107.4839,18.44,19.38,6.276,0,110.6,13.28,19.25,189.9
"2009-03-23 01:36:30",734931,17.51,227.2,1.422,0.386,17.15,107.4755,18.41,19.36,6.314,0,110.6,13.28,19.23,189.2
"2009-03-23 01:37:00",734932,16.56,228.9,1.9,0.384,17.17,107.4703,18.4,19.35,6.327,0,110.6,13.28,19.22,190.9
"2009-03-23 01:37:30",734933,16.08,231.8,1.299,0.228,17.09,107.4663,18.39,19.35,6.324,0,110.6,13.28,19.21,193.8
"2009-03-23 01:38:00",734934,16.56,224,3.888,0.442,17.1,107.4669,18.39,19.34,6.342,0,110.6,13.28,19.21,186.0
"2009-03-23 01:38:30",734935,17.06,224.8,2.372,0.634,17.09,107.4669,18.39,19.34,6.425,0,110.6,13.28,19.21,186.8
"2009-03-23 01:39:00",734936,16.47,229.3,2.834,0.504,17.07,107.4684,18.4,19.34,6.474,0,110.6,13.28,19.21,191.3
"2009-03-23 01:39:30",734937,18.52,226.3,1.981,0.644,17.09,107.4684,18.4,19.31,6.573,0,110.6,13.28,19.21,188.3
"2009-03-23 01:40:00",734938,18.75,226.8,1.164,0.549,17.12,107.4651,18.39,19.3,6.634,0,110.6,13.28,19.20,188.8
"2009-03-23 01:40:30",734939,19.63,228.9,1.79,0.63,17.06,107.4561,18.36,19.29,6.887,0,110.6,13.29,19.18,190.9
"2009-03-23 01:41:00",734940,19.69,226.8,1.223,0.435,17.08,107.4394,18.32,19.28,7.113,0,110.6,13.29,19.14,188.8
"2009-03-23 01:41:30",734941,19.19,227.3,1.617,0.648,17.06,107.4349,18.31,19.27,7.123,0,110.6,13.29,19.13,189.3
"2009-03-23 01:42:00",734942,17.32,229.9,3.804,1.013,16.93,107.4346,18.31,19.26,7.07,0,110.6,13.29,19.13,191.9
"2009-03-23 01:42:30",734943,16.94,228.6,2.182,0.84,17.03,107.4318,18.3,19.25,7.029,0,110.6,13.29,19.12,190.6
"2009-03-23 01:43:00",734944,18.18,230.1,1.77,0.588,17.03,107.4133,18.25,19.22,7.156,0,110.6,13.29,19.07,192.1
"2009-03-23 01:43:30",734945,17.37,233.9,1.582,0.485,16.98,107.4011,18.22,19.2,7.181,0,110.6,13.29,19.04,195.9
"2009-03-23 01:44:00",734946,18.48,227.9,1.311,0.669,17,107.4011,18.22,19.19,7.286,0,110.6,13.29,19.04,189.9
"2009-03-23 01:44:30",734947,17.58,228.8,1.287,0.389,16.96,107.4011,18.22,19.17,7.38,0,110.6,13.29,19.04,190.8
"2009-03-23 01:45:00",734948,17.98,230.1,2.279,0.339,17.05,107.3989,18.22,19.15,7.375,0,110.6,13.29,19.03,192.1
"2009-03-23 01:45:30",734949,16.94,229.7,3.039,0.41,16.98,107.3761,18.16,19.14,7.367,0,110.6,13.29,18.97,191.7
"2009-03-23 01:46:00",734950,17.03,227.2,1.855,0.612,17.03,107.3673,18.14,19.13,7.353,0,110.6,13.29,18.95,189.2
"2009-03-23 01:46:30",734951,16.62,227.3,2.63,1.03,16.98,107.3673,18.14,19.12,7.411,0,110.6,13.29,18.95,189.3
"2009-03-23 01:47:00",734952,16.65,231.3,3.129,0.626,16.96,107.3673,18.14,19.1,7.421,0,110.6,13.29,18.95,193.3
"2009-03-23 01:47:30",734953,16.6,229.8,3.093,1.038,16.94,107.3673,18.14,19.08,7.391,0,110.6,13.29,18.95,191.8